STARLINK-1453, 45670

Orbit data source: Space-Track

STARLINK-1453, 45670 is a payload satellite owned by SpaceX/Seattle (US) in LEO that was launched on Thu, 04 Jun 2020 UTC via an FALCON 9 launch vehicle from the Air Force Eastern Test Range (AFETR). Payload-class satellites include a variety of spacecraft equipped with specific instruments for various scientific and technological missions. These include communications satellites like Starlink; space stations such as the ISS; scientific satellites like the Hubble; Earth observation satellites from companies like Planet Labs, Umbra, and HawkEye 360; GPS; miniature CubeSats for education and research; and military/defense satellites.

Loading next visibility...
Identifier
45670, 2020-035P
Orbit
LEO
Country
Flag of USUS
Related business
Manufacturer
SpaceX/Seattle
Mission
Partially operational Commercial Communications
Bus & Motor
STARLINK, Unknown motor
Mass
260 kg wet, ~248 kg dry
Launch date (UTC)
2020-06-04 (6 years ago)
Launch vehicle
FALCON 9
Launch site
Air Force Eastern Test Range (AFETR)
Object type
Payload
Rocket body
Debris
Shape & HBR
Box + 1 Pan, 10.1 m
Radar Cross Section
13.562 m², Large (>1 m²)

Expand to show TLE details & history
Last TLE update: 9 hours ago

TLE from 9 hours ago
0 STARLINK-1453
1 45670U 20035P   26132.91473091  .00041401  00000-0  40731-3 0  9998
2 45670  53.0410  60.6113 0003356 102.1591 257.9800 15.65599378329395
Epoch: 2026-05-12T21:57Z
TLE epoch observation values (Epoch: 2026-05-12T21:57:12.750Z)
Latitude
-0°
Longitude
-139.37409°
Altitude
372.888 km
Speed
7.687 km/s
True Right ascension
04h 02m 26s
True Declination
0° 00' 00"
Sunlit
Object was in daylight at epoch
Visualization orbit readout
Latitude
Unknown
Longitude
Unknown
Altitude
Unknown
Speed
Unknown
Apparent Right ascension
Unknown
Apparent Declination
Unknown
Sunlit
N/A
Visualization observer readout
Local Sidereal Time
15:50:35
Azimuth
Unknown
Elevation
Unknown
Doppler factor
Unknown
Orbital elements
Apogee altitude
374.061 km
Perigee altitude
369.53 km
Semi-major axis
6,749.932 km
Eccentricity
0.00034
Inclination
53.041°
RAAN
60.6113°
Arg. of periapsis
102.1591°
True anomaly
257.94239°
Mean anomaly
257.98°
Eccentric anomaly
257.96119°
Mean motion
3.91376 °/min
Orbital period
91.98 mins
BSTAR
0.00040731
Loading maneuver chart data...
Computing Atmospheric mass density...

Documentation

Showing up to 5 results
|